NKS1378 KFLL-KMCO

Flight info

Callsign NKS1378
Flight time 0h 31m
Altitude 22000
Route FRSBE2 WAPOM RIDES2
Aircraft A319/M-SDE3FGHIRWY/LB1

Departure

Time 2026-05-04 21:35
Airport Fort Lauderdale Hollywood International Airport (KFLL)

Arrival

Time 2026-05-04 22:07
Airport Orlando International Airport (KMCO)
Time Latitude Longitude Altitude Speed Heading
2026-05-04 21:10 26.06886 -80.14516 16 ft 0 kts 359°
2026-05-04 21:24 26.06882 -80.14516 16 ft 2 kts 360°
2026-05-04 21:24 26.06863 -80.14516 26 ft 3 kts
2026-05-04 21:24 26.06843 -80.14517 17 ft 3 kts
2026-05-04 21:24 26.06825 -80.14517 17 ft 3 kts 332°
2026-05-04 21:25 26.06819 -80.14511 17 ft 1 kts 271°
2026-05-04 21:25 26.06819 -80.14497 18 ft 3 kts 270°
2026-05-04 21:25 26.06819 -80.14481 16 ft 1 kts 270°
2026-05-04 21:28 26.06819 -80.14491 16 ft 5 kts 270°
2026-05-04 21:28 26.06816 -80.14552 16 ft 8 kts 256°
2026-05-04 21:28 26.06781 -80.14596 15 ft 7 kts 220°
2026-05-04 21:29 26.06765 -80.14648 15 ft 8 kts 270°
2026-05-04 21:29 26.06766 -80.14709 15 ft 8 kts 270°
2026-05-04 21:29 26.06766 -80.14770 15 ft 9 kts 270°
2026-05-04 21:29 26.06766 -80.14862 15 ft 14 kts 270°
2026-05-04 21:30 26.06767 -80.14972 16 ft 14 kts 270°
2026-05-04 21:30 26.06768 -80.15080 16 ft 14 kts 270°
2026-05-04 21:30 26.06768 -80.15186 16 ft 14 kts 270°
2026-05-04 21:30 26.06769 -80.15292 16 ft 14 kts 271°
2026-05-04 21:31 26.06767 -80.15505 16 ft 14 kts 257°
2026-05-04 21:31 26.06699 -80.15567 16 ft 13 kts 250°
2026-05-04 21:31 26.06698 -80.15667 16 ft 13 kts 270°
2026-05-04 21:32 26.06698 -80.15773 16 ft 14 kts 268°
2026-05-04 21:32 26.06680 -80.15813 18 ft 0 kts 218°
2026-05-04 21:34 26.06676 -80.15816 16 ft 1 kts 215°
2026-05-04 21:34 26.06642 -80.15824 17 ft 10 kts 179°
2026-05-04 21:34 26.06588 -80.15762 19 ft 17 kts 90°
2026-05-04 21:34 26.06588 -80.15552 24 ft 55 kts 90°
2026-05-04 21:35 26.06584 -80.14788 26 ft 139 kts 90°
2026-05-04 21:35 26.06582 -80.13623 503 ft 161 kts 88°
2026-05-04 21:35 26.06590 -80.12343 1381 ft 167 kts 85°
2026-05-04 21:35 26.06765 -80.11039 2238 ft 178 kts 72°
2026-05-04 21:36 26.07361 -80.09770 2741 ft 196 kts 56°
2026-05-04 21:36 26.08178 -80.08401 3195 ft 228 kts 57°
2026-05-04 21:36 26.09326 -80.07062 3863 ft 249 kts 30°
2026-05-04 21:36 26.10986 -80.06320 4873 ft 262 kts 21°
2026-05-04 21:37 26.12728 -80.05617 5574 ft 269 kts 19°
2026-05-04 21:37 26.14540 -80.05026 6131 ft 275 kts
2026-05-04 21:37 26.16460 -80.05046 7034 ft 277 kts 347°
2026-05-04 21:37 26.18301 -80.05571 7903 ft 280 kts 339°
2026-05-04 21:38 26.20151 -80.06293 8905 ft 281 kts 330°
2026-05-04 21:38 26.21743 -80.07531 9908 ft 278 kts 312°
2026-05-04 21:38 26.22975 -80.09222 10501 ft 291 kts 297°
2026-05-04 21:38 26.23820 -80.11327 10985 ft 303 kts 288°
2026-05-04 21:39 26.24587 -80.13540 11766 ft 307 kts 288°
2026-05-04 21:39 26.25406 -80.15754 12606 ft 312 kts 293°
2026-05-04 21:39 26.26532 -80.17809 13405 ft 316 kts 299°
2026-05-04 21:39 26.27732 -80.19884 14146 ft 319 kts 299°
2026-05-04 21:40 26.28925 -80.21971 14824 ft 321 kts 298°
2026-05-04 21:40 26.29930 -80.23742 15390 ft 323 kts 298°
2026-05-04 21:40 26.31134 -80.25867 16063 ft 325 kts 298°
2026-05-04 21:40 26.32350 -80.28010 16730 ft 328 kts 298°
2026-05-04 21:41 26.33579 -80.30166 17396 ft 331 kts 298°
2026-05-04 21:41 26.34814 -80.32340 18066 ft 333 kts 298°
2026-05-04 21:41 26.36056 -80.34532 18649 ft 336 kts 298°
2026-05-04 21:41 26.37308 -80.36750 19212 ft 339 kts 298°
2026-05-04 21:42 26.38557 -80.38958 19765 ft 341 kts 298°
2026-05-04 21:42 26.39835 -80.41212 20330 ft 344 kts 298°
2026-05-04 21:42 26.41121 -80.43479 20895 ft 347 kts 298°
2026-05-04 21:42 26.42417 -80.45772 21473 ft 350 kts 297°
2026-05-04 21:43 26.43719 -80.48085 21911 ft 357 kts 297°
2026-05-04 21:43 26.45080 -80.50482 22019 ft 374 kts 299°
2026-05-04 21:43 26.46686 -80.52855 22037 ft 394 kts 306°
2026-05-04 21:43 26.48672 -80.55088 22035 ft 415 kts 314°
2026-05-04 21:44 26.51090 -80.56966 22034 ft 431 kts 326°
2026-05-04 21:44 26.53861 -80.58249 22034 ft 442 kts 337°
2026-05-04 21:44 26.56832 -80.59187 22053 ft 444 kts 339°
2026-05-04 21:44 26.59808 -80.60105 22035 ft 443 kts 339°
2026-05-04 21:45 26.62781 -80.61024 22035 ft 443 kts 339°
2026-05-04 21:45 26.65754 -80.61952 22029 ft 443 kts 338°
2026-05-04 21:45 26.68720 -80.62891 22032 ft 443 kts 338°
2026-05-04 21:45 26.71691 -80.63837 22032 ft 443 kts 338°
2026-05-04 21:46 26.74652 -80.64781 22035 ft 443 kts 338°
2026-05-04 21:46 26.77623 -80.65733 22034 ft 443 kts 338°
2026-05-04 21:46 26.80587 -80.66686 22042 ft 443 kts 338°
2026-05-04 21:46 26.83553 -80.67637 22043 ft 443 kts 338°
2026-05-04 21:47 26.86514 -80.68585 22054 ft 443 kts 338°
2026-05-04 21:47 26.89449 -80.69523 22055 ft 443 kts 338°
2026-05-04 21:47 26.92418 -80.70486 22043 ft 442 kts 337°
2026-05-04 21:47 26.95348 -80.71517 22035 ft 441 kts 336°
2026-05-04 21:48 26.98264 -80.72614 22031 ft 441 kts 335°
2026-05-04 21:48 27.01157 -80.73745 22027 ft 441 kts 335°
2026-05-04 21:48 27.04023 -80.74879 22023 ft 441 kts 335°
2026-05-04 21:48 27.06919 -80.76014 22023 ft 441 kts 335°
2026-05-04 21:49 27.09825 -80.77134 22021 ft 441 kts 335°
2026-05-04 21:49 27.12735 -80.78241 22019 ft 442 kts 335°
2026-05-04 21:49 27.15652 -80.79343 22017 ft 442 kts 336°
2026-05-04 21:49 27.18571 -80.80440 22016 ft 440 kts 336°
2026-05-04 21:50 27.21427 -80.81508 21766 ft 424 kts 336°
2026-05-04 21:50 27.24178 -80.82538 21516 ft 410 kts 335°
2026-05-04 21:50 27.26865 -80.83551 21268 ft 406 kts 335°
2026-05-04 21:50 27.29532 -80.84568 21022 ft 403 kts 335°
2026-05-04 21:51 27.32152 -80.85571 20782 ft 401 kts 335°
2026-05-04 21:51 27.34789 -80.86595 20536 ft 400 kts 335°
2026-05-04 21:51 27.37411 -80.87638 20292 ft 398 kts 334°
2026-05-04 21:51 27.40010 -80.88688 20072 ft 397 kts 334°
2026-05-04 21:52 27.42610 -80.89737 19842 ft 395 kts 334°
2026-05-04 21:52 27.45201 -80.90780 19607 ft 394 kts 334°
2026-05-04 21:52 27.47773 -80.91811 19280 ft 389 kts 335°
2026-05-04 21:52 27.50289 -80.92811 18763 ft 386 kts 335°
2026-05-04 21:53 27.52817 -80.93812 18189 ft 383 kts 335°
2026-05-04 21:53 27.55324 -80.94809 17610 ft 379 kts 335°
2026-05-04 21:53 27.57801 -80.95794 16985 ft 376 kts 336°
2026-05-04 21:53 27.60253 -80.96771 16418 ft 371 kts 336°
2026-05-04 21:54 27.62667 -80.97738 15843 ft 366 kts 337°
2026-05-04 21:54 27.65055 -80.98695 15271 ft 362 kts 337°
2026-05-04 21:54 27.67422 -80.99645 14697 ft 359 kts 338°
2026-05-04 21:54 27.69772 -81.00587 14113 ft 357 kts 338°
2026-05-04 21:55 27.72100 -81.01519 13502 ft 354 kts 338°
2026-05-04 21:55 27.74379 -81.02432 12924 ft 350 kts 338°
2026-05-04 21:55 27.76662 -81.03345 12355 ft 346 kts 338°
2026-05-04 21:55 27.78942 -81.04257 11792 ft 351 kts 338°
2026-05-04 21:56 27.81257 -81.05184 11479 ft 352 kts 338°
2026-05-04 21:56 27.83530 -81.06092 11244 ft 340 kts 338°
2026-05-04 21:56 27.85706 -81.06960 11114 ft 325 kts 338°
2026-05-04 21:56 27.87813 -81.07803 10801 ft 318 kts 337°
2026-05-04 21:57 27.89892 -81.08653 10444 ft 315 kts 334°
2026-05-04 21:57 27.91735 -81.09859 10111 ft 308 kts 319°
2026-05-04 21:57 27.93230 -81.11557 9737 ft 302 kts 305°
2026-05-04 21:57 27.94519 -81.13433 9355 ft 302 kts 305°
2026-05-04 21:58 27.95809 -81.15299 8963 ft 300 kts 305°
2026-05-04 21:58 27.97095 -81.17150 8595 ft 299 kts 306°
2026-05-04 21:58 27.98379 -81.19001 8226 ft 298 kts 305°
2026-05-04 21:58 27.99655 -81.20843 7869 ft 297 kts 306°
2026-05-04 21:59 28.00930 -81.22685 7506 ft 296 kts 306°
2026-05-04 21:59 28.02195 -81.24513 7169 ft 293 kts 304°
2026-05-04 21:59 28.03446 -81.26317 6856 ft 291 kts 305°
2026-05-04 21:59 28.04697 -81.28123 6515 ft 290 kts 304°
2026-05-04 22:00 28.05948 -81.29897 6212 ft 286 kts 309°
2026-05-04 22:00 28.07480 -81.31312 5905 ft 285 kts 328°
2026-05-04 22:00 28.09287 -81.32132 5632 ft 282 kts 347°
2026-05-04 22:00 28.11220 -81.32342 5384 ft 277 kts 359°
2026-05-04 22:01 28.13128 -81.32358 5152 ft 271 kts 360°
2026-05-04 22:01 28.14376 -81.32369 4988 ft 268 kts 359°
2026-05-04 22:01 28.16219 -81.32389 4819 ft 260 kts 360°
2026-05-04 22:01 28.18010 -81.32409 4596 ft 255 kts
2026-05-04 22:02 28.19784 -81.32428 4279 ft 254 kts
2026-05-04 22:02 28.21541 -81.32447 3952 ft 251 kts
2026-05-04 22:02 28.23275 -81.32466 3622 ft 247 kts
2026-05-04 22:02 28.24967 -81.32485 3305 ft 238 kts
2026-05-04 22:03 28.26553 -81.32504 3001 ft 217 kts
2026-05-04 22:03 28.27998 -81.32520 2729 ft 199 kts
2026-05-04 22:03 28.29352 -81.32534 2501 ft 190 kts
2026-05-04 22:03 28.30634 -81.32547 2232 ft 179 kts
2026-05-04 22:04 28.31818 -81.32561 2010 ft 160 kts
2026-05-04 22:04 28.32869 -81.32573 1804 ft 142 kts
2026-05-04 22:04 28.33839 -81.32580 1625 ft 138 kts
2026-05-04 22:04 28.34789 -81.32588 1438 ft 134 kts
2026-05-04 22:05 28.35722 -81.32619 1276 ft 134 kts
2026-05-04 22:05 28.36627 -81.32627 1055 ft 129 kts
2026-05-04 22:05 28.37525 -81.32620 858 ft 128 kts
2026-05-04 22:05 28.38424 -81.32636 683 ft 130 kts
2026-05-04 22:06 28.39351 -81.32644 549 ft 136 kts
2026-05-04 22:06 28.40300 -81.32652 381 ft 137 kts
2026-05-04 22:06 28.41238 -81.32662 212 ft 133 kts
2026-05-04 22:06 28.42130 -81.32667 100 ft 123 kts
2026-05-04 22:07 28.42729 -81.32676 100 ft 43 kts 359°
2026-05-04 22:07 28.43052 -81.32679 100 ft 54 kts 359°
2026-05-04 22:07 28.43381 -81.32683 101 ft 45 kts 359°
2026-05-04 22:07 28.43658 -81.32657 101 ft 31 kts 23°
2026-05-04 22:08 28.43742 -81.32551 99 ft 0 kts 59°
2026-05-04 22:08 28.43743 -81.32549 99 ft 2 kts 59°
2026-05-04 22:08 28.43772 -81.32494 99 ft 14 kts 59°
2026-05-04 22:08 28.43841 -81.32367 100 ft 22 kts 58°
2026-05-04 22:09 28.43920 -81.32216 101 ft 20 kts 58°
2026-05-04 22:09 28.43986 -81.32080 101 ft 17 kts 75°
2026-05-04 22:09 28.43956 -81.31938 100 ft 23 kts 117°
2026-05-04 22:09 28.43921 -81.31763 102 ft 22 kts 90°
2026-05-04 22:10 28.43923 -81.31568 107 ft 21 kts 89°
2026-05-04 22:10 28.43906 -81.31463 104 ft 15 kts 153°
2026-05-04 22:10 28.43807 -81.31400 103 ft 23 kts 109°
2026-05-04 22:10 28.43748 -81.31239 98 ft 18 kts 134°
2026-05-04 22:11 28.43678 -81.31186 96 ft 11 kts 145°
2026-05-04 22:11 28.43620 -81.31144 95 ft 13 kts 149°
2026-05-04 22:11 28.43505 -81.31153 95 ft 19 kts 205°
2026-05-04 22:11 28.43483 -81.31216 96 ft 3 kts 330°
2026-05-04 22:12 28.43513 -81.31241 94 ft 0 kts 324°
2026-05-04 22:12 28.43516 -81.31243 94 ft 0 kts 324°
2026-05-04 22:12 28.43520 -81.31247 94 ft 0 kts 324°
2026-05-04 22:12 28.43521 -81.31248 94 ft 0 kts 324°